TimeEST,TemperatureF,Dew PointF,Humidity,Sea Level PressureIn,VisibilityMPH,Wind Direction,Wind SpeedMPH,Gust SpeedMPH,PrecipitationIn,Events,Conditions,WindDirDegrees,DateUTC
12:52 AM,17.1,6.1,62,29.95,10.0,SSW,5.8,-,N/A,,Overcast,200,2013-02-05 05:52:00
1:52 AM,18.0,6.1,60,29.96,10.0,South,3.5,-,N/A,,Overcast,190,2013-02-05 06:52:00
2:52 AM,17.1,8.1,68,29.95,10.0,Calm,Calm,-,N/A,,Overcast,0,2013-02-05 07:52:00
3:52 AM,17.1,8.1,68,29.95,10.0,Calm,Calm,-,N/A,,Overcast,0,2013-02-05 08:52:00
4:52 AM,17.1,10.0,74,29.95,10.0,Calm,Calm,-,N/A,,Overcast,0,2013-02-05 09:52:00
5:52 AM,17.1,10.0,74,29.96,10.0,South,3.5,-,N/A,,Overcast,190,2013-02-05 10:52:00
6:52 AM,17.1,10.9,77,29.97,10.0,Calm,Calm,-,N/A,,Overcast,0,2013-02-05 11:52:00
7:52 AM,18.0,10.0,71,30.01,10.0,SW,3.5,-,N/A,,Overcast,220,2013-02-05 12:52:00
8:52 AM,21.0,9.0,60,30.00,10.0,NW,5.8,-,N/A,,Overcast,320,2013-02-05 13:52:00
9:52 AM,21.9,12.9,68,30.01,-9999.0,Calm,Calm,-,N/A,,Overcast,0,2013-02-05 14:52:00
10:52 AM,24.1,8.1,51,30.01,10.0,North,-9999.0,-,N/A,,Unknown,0,2013-02-05 15:52:00
11:52 AM,25.0,8.1,49,29.98,10.0,Calm,Calm,-,N/A,,Clear,0,2013-02-05 16:52:00
12:52 PM,26.1,8.1,47,29.96,10.0,Calm,Calm,-,N/A,,Clear,0,2013-02-05 17:52:00
1:52 PM,27.0,9.0,47,29.95,10.0,Variable,3.5,-,N/A,,Clear,0,2013-02-05 18:52:00
2:52 PM,28.9,10.0,45,29.94,10.0,South,5.8,-,N/A,,Clear,180,2013-02-05 19:52:00
3:52 PM,28.0,10.9,49,29.92,10.0,SSE,5.8,-,N/A,,Clear,160,2013-02-05 20:52:00
4:52 PM,28.0,10.9,49,29.93,10.0,SSE,3.5,-,N/A,,Clear,150,2013-02-05 21:52:00
6:52 PM,26.1,12.9,58,29.93,10.0,SSE,4.6,-,N/A,,Clear,160,2013-02-05 23:52:00
7:52 PM,25.0,15.1,66,29.94,10.0,Calm,Calm,-,N/A,,Mostly Cloudy,0,2013-02-06 00:52:00
8:52 PM,25.0,16.0,69,29.95,10.0,SSE,4.6,-,N/A,,Overcast,160,2013-02-06 01:52:00
9:52 PM,24.1,19.0,81,29.94,5.0,South,3.5,-,0.00,Snow,Light Snow,170,2013-02-06 02:52:00
10:52 PM,24.1,19.0,81,29.93,7.0,SSW,4.6,-,0.00,,Overcast,200,2013-02-06 03:52:00
11:23 PM,24.8,19.4,80,29.91,9.0,Calm,Calm,-,N/A,,Overcast,0,2013-02-06 04:23:00
11:52 PM,24.1,19.9,84,29.93,5.0,Calm,Calm,-,0.00,Snow,Light Snow,0,2013-02-06 04:52:00